FW3260 Weather Reports


time (UTC)temp
C
wind
direction
speed
KPH
gust
KPH
rain 1hr
cm
rain 24hr
cm
rain mn
cm
humidity
%
barometer
mb
20260507182019 17 293 4.8 14.5 0.00 0.28 0.08 38 1007.2
20260507181019 17 270 6.4 14.5 0.00 0.28 0.08 33 1007.5
20260507180019 16 270 4.8 11.3 0.00 0.28 0.08 35 1007.4
20260507175019 17 270 8.0 20.9 0.00 0.28 0.08 34 1007.7
20260507174019 17 270 3.2 8.0 0.00 0.28 0.08 38 1007.6
20260507173019 16 270 6.4 16.1 0.00 0.28 0.08 41 1007.5
20260507172018 16 338 4.8 11.3 0.00 0.28 0.08 37 1007.5
20260507171019 16 293 8.0 20.9 0.00 0.28 0.08 42 1007.5
20260507170020 16 270 4.8 11.3 0.00 0.28 0.08 42 1007.8
20260507165019 16 0 3.2 9.7 0.00 0.28 0.08 43 1008.0
20260507164019 16 270 8.0 19.3 0.00 0.28 0.08 42 1008.1
20260507163039 16 248 4.8 8.0 0.00 0.28 0.08 41 1008.0
20260507162019 15 270 4.8 11.3 0.00 0.28 0.08 44 1008.3
20260507161019 16 270 4.8 12.9 0.00 0.28 0.08 47 1008.3
20260507160019 16 293 4.8 12.9 0.00 0.28 0.08 47 1008.2
20260507155039 15 293 4.8 12.9 0.00 0.28 0.08 47 1008.4
20260507154039 16 293 4.8 9.7 0.00 0.28 0.08 47 1008.4
20260507153020 15 270 4.8 14.5 0.00 0.28 0.08 50 1008.3
20260507152019 15 293 4.8 11.3 0.00 0.28 0.08 52 1008.4
20260507151018 15 315 4.8 12.9 0.00 0.28 0.08 52 1008.6
20260507150018 15 338 4.8 12.9 0.00 0.28 0.08 56 1008.7
20260507145018 15 270 4.8 12.9 0.00 0.28 0.08 57 1008.7
20260507144018 14 270 3.2 11.3 0.00 0.28 0.08 62 1008.7
20260507143018 13 203 4.8 14.5 0.00 0.28 0.08 64 1008.7
20260507142019 13 270 4.8 14.5 0.00 0.28 0.08 66 1008.9
20260507141018 13 248 4.8 19.3 0.00 0.28 0.08 66 1008.9
20260507140139 14 315 3.2 6.4 0.00 0.28 0.08 68 1008.8
20260507135018 13 203 3.2 9.7 0.00 0.28 0.08 67 1008.8
20260507134019 13 315 3.2 9.7 0.00 0.28 0.08 68 1008.7
20260507133020 13 293 3.2 9.7 0.00 0.28 0.08 70 1008.8
20260507132018 13 315 3.2 9.7 0.00 0.28 0.08 68 1008.9
20260507131018 13 338 1.6 6.4 0.00 0.28 0.08 71 1008.9
20260507130018 12 270 1.6 4.8 0.00 0.28 0.08 71 1008.9
20260507125018 12 270 3.2 9.7 0.00 0.28 0.08 73 1008.8
20260507124018 12 293 3.2 6.4 0.00 0.28 0.08 77 1008.9
20260507123018 11 315 3.2 6.4 0.00 0.28 0.08 81 1009.0
20260507122038 10 315 3.2 6.4 0.00 0.28 0.08 88 1009.0
20260507121018 10 270 3.2 9.7 0.00 0.28 0.08 89 1008.9
20260507120019 9 248 1.6 4.8 0.00 0.28 0.08 91 1008.9
20260507115018 9 293 1.6 6.4 0.00 0.28 0.08 91 1008.7
20260507114018 9 0.0 1.6 0.00 0.28 0.08 91 1008.8
20260507113018 9 0.0 1.6 0.00 0.28 0.08 91 1008.7
20260507112018 9 0.0 4.8 0.00 0.28 0.08 91 1008.8
20260507111059 8 0.0 1.6 0.00 0.28 0.08 91 1008.7
20260507110018 8 0.0 1.6 0.00 0.28 0.08 91 1008.6
20260507105018 8 0.0 3.2 0.00 0.28 0.08 90 1008.4
20260507104038 8 225 1.6 8.0 0.00 0.28 0.08 90 1008.5
20260507103018 8 0.0 3.2 0.03 0.28 0.08 90 1008.6
20260507102018 8 293 1.6 3.2 0.03 0.28 0.08 90 1008.3
20260507101018 8 315 1.6 4.8 0.03 0.28 0.08 89 1008.1
20260507100038 9 0.0 3.2 0.05 0.28 0.08 89 1008.0
20260507095038 9 338 1.6 4.8 0.05 0.28 0.08 89 1008.1
20260507094038 9 248 1.6 6.4 0.05 0.28 0.08 88 1007.8
20260507093038 9 0.0 1.6 0.05 0.25 0.05 88 1007.9
20260507092018 9 45 1.6 3.2 0.05 0.25 0.05 87 1008.3
20260507091018 9 0.0 1.6 0.05 0.25 0.05 86 1008.1
20260507090017 9 0.0 3.2 0.03 0.23 0.03 86 1008.3
20260507085018 10 0.0 3.2 0.03 0.23 0.03 85 1008.6
20260507084018 10 293 1.6 9.7 0.03 0.23 0.03 85 1008.4
20260507083017 10 0.0 4.8 0.00 0.20 0.00 84 1008.3
20260507082018 10 270 1.6 6.4 0.00 0.20 0.00 84 1008.4
20260507081018 10 293 1.6 3.2 0.00 0.20 0.00 84 1008.2
20260507080018 10 293 1.6 3.2 0.00 0.20 0.00 83 1007.8
20260507075018 10 0.0 3.2 0.00 0.20 0.00 82 1008.4
20260507074018 10 270 1.6 4.8 0.00 0.20 0.00 82 1008.3
20260507073019 11 0.0 1.6 0.00 0.20 0.00 81 1007.9
20260507072018 11 293 1.6 4.8 0.00 0.20 0.00 81 1008.3
20260507071018 11 315 3.2 8.0 0.00 0.20 0.00 81 1007.6
20260507070017 11 293 1.6 4.8 0.00 0.20 0.00 82 1007.6
20260507065018 11 315 1.6 4.8 0.00 0.20 0.00 82 1007.5
20260507064018 11 270 1.6 4.8 0.00 0.20 0.00 82 1007.5
20260507063017 11 270 1.6 6.4 0.00 0.20 0.00 82 1007.4
20260507062018 11 293 3.2 8.0 0.00 0.20 0.00 83 1007.7
20260507061017 12 293 3.2 11.3 0.00 0.20 0.00 85 1007.8
20260507060100 12 315 1.6 6.4 0.00 0.20 0.00 87 1007.5
20260507055058 12 270 3.2 4.8 0.00 0.20 0.00 86 1007.7
20260507054019 12 248 1.6 6.4 0.00 0.20 0.00 87 1007.8
20260507053020 12 293 3.2 9.7 0.00 0.20 0.00 87 1007.9
20260507052039 12 248 3.2 12.9 0.00 0.20 0.00 87 1008.0
20260507051018 12 270 3.2 8.0 0.00 0.20 0.00 87 1007.8
20260507050039 12 293 1.6 4.8 0.00 0.20 0.00 88 1007.7
20260507045019 13 315 3.2 11.3 0.00 0.20 0.00 90 1007.8
20260507044019 13 293 3.2 9.7 0.00 0.20 0.00 90 1007.9
20260507043019 13 293 4.8 12.9 0.00 0.20 0.00 92 1007.8
20260507042019 13 293 3.2 6.4 0.00 0.20 0.00 92 1007.6
20260507041019 14 270 1.6 4.8 0.00 0.20 0.00 93 1007.7
20260507040040 14 270 1.6 4.8 0.00 0.20 0.20 93 1007.8
20260507035017 14 315 3.2 16.1 0.00 0.20 0.20 94 1008.0
20260507034018 14 270 3.2 11.3 0.00 0.20 0.20 94 1007.8
20260507033018 15 293 1.6 6.4 0.00 0.20 0.20 94 1007.5
20260507032018 15 270 1.6 6.4 0.00 0.20 0.20 94 1007.3
20260507031058 15 293 1.6 4.8 0.00 0.20 0.20 94 1007.4
20260507030018 15 270 3.2 11.3 0.00 0.20 0.20 95 1007.0
20260507025018 15 315 3.2 11.3 0.00 0.20 0.20 94 1007.0
20260507024017 15 315 3.2 6.4 0.00 0.20 0.20 94 1006.8
20260507023018 15 315 3.2 8.0 0.03 0.20 0.20 94 1006.8
20260507022017 15 270 3.2 11.3 0.03 0.20 0.20 94 1006.9
20260507021017 15 293 4.8 11.3 0.03 0.20 0.20 94 1006.8
20260507020020 15 293 3.2 9.7 0.03 0.20 0.20 94 1006.7
20260507015020 15 315 3.2 8.0 0.03 0.20 0.20 94 1006.8
20260507014019 15 338 3.2 8.0 0.03 0.20 0.20 94 1006.7
20260507013017 15 338 3.2 11.3 0.00 0.18 0.18 94 1006.5
20260507012019 15 315 3.2 8.0 0.00 0.18 0.18 94 1006.6
20260507011019 15 338 3.2 9.7 0.00 0.18 0.18 94 1007.0
20260507010020 15 315 3.2 8.0 0.00 0.18 0.18 94 1007.0
20260507005019 15 270 4.8 14.5 0.00 0.18 0.18 94 1007.1
20260507004059 15 293 3.2 9.7 0.00 0.18 0.18 94 1006.9
20260507003039 15 315 3.2 6.4 0.00 0.18 0.18 94 1007.0
20260507002019 15 315 3.2 9.7 0.00 0.18 0.18 94 1006.9
20260507001119 15 315 3.2 9.7 0.00 0.18 0.18 94 1006.8
20260507000140 15 315 3.2 8.0 0.00 0.18 0.18 93 1006.6
20260506235019 15 293 3.2 9.7 0.05 0.18 0.18 93 1006.4
20260506234019 15 23 3.2 6.4 0.05 0.18 0.18 93 1006.5
20260506233039 15 315 3.2 6.4 0.05 0.18 0.18 93 1006.5
20260506232019 15 23 3.2 8.0 0.08 0.18 0.18 93 1006.3
20260506231019 15 338 3.2 6.4 0.08 0.18 0.18 93 1006.3
20260506230039 15 338 3.2 6.4 0.08 0.18 0.18 92 1006.5
20260506225019 15 180 3.2 9.7 0.03 0.13 0.13 92 1006.4
20260506224019 15 0 3.2 6.4 0.03 0.13 0.13 92 1006.5
20260506223019 15 0 3.2 9.7 0.03 0.13 0.13 92 1006.6
20260506222019 15 0 3.2 9.7 0.00 0.10 0.10 92 1006.6
20260506221020 15 158 3.2 8.0 0.00 0.10 0.10 91 1006.8
20260506220039 15 135 3.2 11.3 0.00 0.10 0.10 91 1006.8
20260506215019 15 338 1.6 6.4 0.00 0.10 0.10 91 1006.9
20260506214019 16 315 3.2 9.7 0.00 0.10 0.10 91 1006.9
20260506213040 16 23 3.2 6.4 0.00 0.10 0.10 90 1007.2
20260506212019 16 0 3.2 6.4 0.00 0.10 0.10 90 1007.2
20260506211019 15 315 3.2 9.7 0.00 0.10 0.10 90 1007.2
20260506210039 15 315 3.2 9.7 0.00 0.10 0.10 90 1007.3
20260506205019 16 315 4.8 9.7 0.00 0.10 0.10 90 1007.4
20260506204039 16 293 4.8 20.9 0.00 0.10 0.10 89 1007.5
20260506203039 16 293 4.8 12.9 0.00 0.10 0.10 89 1007.5
20260506202019 16 315 3.2 12.9 0.03 0.10 0.10 88 1007.6
20260506201019 16 315 4.8 12.9 0.05 0.10 0.10 88 1007.6
20260506200019 16 90 4.8 17.7 0.08 0.10 0.10 87 1007.5
20260506195019 16 315 3.2 11.3 0.10 0.10 0.10 86 1007.6
20260506194019 16 315 4.8 9.7 0.10 0.10 0.10 86 1007.5
20260506193018 17 315 4.8 12.9 0.10 0.10 0.10 84 1007.6
20260506192019 17 338 3.2 11.3 0.08 0.08 0.08 82 1007.8
20260506191019 18 315 4.8 11.3 0.05 0.05 0.05 80 1007.7
20260506190019 18 315 3.2 6.4 0.03 0.03 0.03 78 1007.6
20260506185039 18 293 4.8 14.5 0.00 0.00 0.00 77 1007.8
20260506184019 19 293 4.8 11.3 0.00 0.00 0.00 75 1007.9
20260506183018 20 293 4.8 11.3 0.00 0.00 0.00 73 1008.1